TimeEDT,TemperatureF,Dew PointF,Humidity,Sea Level PressureIn,VisibilityMPH,Wind Direction,Wind SpeedMPH,Gust SpeedMPH,PrecipitationIn,Events,Conditions,WindDirDegrees,DateUTC
12:56 AM,50.0,23.0,35,29.94,10.0,West,4.6,-,N/A,,Clear,260,2012-11-02 04:56:00
1:56 AM,45.0,26.1,48,29.94,10.0,South,4.6,-,N/A,,Clear,190,2012-11-02 05:56:00
2:56 AM,43.0,26.1,51,29.94,10.0,Calm,Calm,-,N/A,,Clear,0,2012-11-02 06:56:00
3:56 AM,43.0,26.1,51,29.94,10.0,SSE,3.5,-,N/A,,Mostly Cloudy,160,2012-11-02 07:56:00
4:56 AM,42.1,28.9,60,29.93,10.0,SSW,3.5,-,N/A,,Partly Cloudy,210,2012-11-02 08:56:00
5:56 AM,39.9,30.0,68,29.94,10.0,Calm,Calm,-,N/A,,Partly Cloudy,0,2012-11-02 09:56:00
6:56 AM,37.9,30.9,76,29.94,10.0,SW,3.5,-,N/A,,Overcast,220,2012-11-02 10:56:00
7:56 AM,39.0,32.0,76,29.95,10.0,Calm,Calm,-,N/A,,Clear,0,2012-11-02 11:56:00
8:56 AM,43.0,35.1,74,29.95,10.0,Calm,Calm,-,N/A,,Clear,0,2012-11-02 12:56:00
9:56 AM,55.9,34.0,44,29.94,10.0,West,8.1,-,N/A,,Clear,260,2012-11-02 13:56:00
10:56 AM,62.1,36.0,38,29.94,10.0,West,12.7,-,N/A,,Clear,270,2012-11-02 14:56:00
11:56 AM,64.9,36.0,34,29.93,10.0,West,17.3,-,N/A,,Clear,270,2012-11-02 15:56:00
12:56 PM,66.9,37.0,33,29.89,10.0,WSW,17.3,24.2,N/A,,Clear,250,2012-11-02 16:56:00
1:56 PM,71.1,37.9,30,29.86,10.0,West,16.1,21.9,N/A,,Clear,270,2012-11-02 17:56:00
2:56 PM,72.0,39.0,30,29.84,10.0,WSW,15.0,24.2,N/A,,Clear,250,2012-11-02 18:56:00
3:56 PM,73.9,42.1,32,29.83,10.0,WSW,11.5,-,N/A,,Clear,250,2012-11-02 19:56:00
4:56 PM,73.0,42.1,33,29.84,10.0,WSW,13.8,24.2,N/A,,Clear,250,2012-11-02 20:56:00
5:56 PM,72.0,43.0,35,29.85,10.0,WSW,12.7,-,N/A,,Clear,240,2012-11-02 21:56:00
6:56 PM,66.9,42.1,40,29.88,10.0,West,8.1,-,N/A,,Clear,280,2012-11-02 22:56:00
7:56 PM,59.0,44.1,58,29.92,10.0,Calm,Calm,-,N/A,,Clear,0,2012-11-02 23:56:00
8:56 PM,61.0,37.0,41,29.94,10.0,NNW,5.8,-,N/A,,Clear,330,2012-11-03 00:56:00
9:56 PM,59.0,37.0,44,29.94,10.0,NNW,4.6,-,N/A,,Clear,340,2012-11-03 01:56:00
10:56 PM,55.0,39.0,55,29.96,10.0,Calm,Calm,-,N/A,,Clear,0,2012-11-03 02:56:00
11:56 PM,48.0,39.9,74,29.98,10.0,Calm,Calm,-,N/A,,Clear,0,2012-11-03 03:56:00